TimeCST,TemperatureF,Dew PointF,Humidity,Sea Level PressureIn,VisibilityMPH,Wind Direction,Wind SpeedMPH,Gust SpeedMPH,PrecipitationIn,Events,Conditions,WindDirDegrees,DateUTC
12:52 AM,12.0,6.1,77,30.12,10.0,East,9.2,-,N/A,,Overcast,80,2013-12-16 06:52:00
1:52 AM,12.0,7.0,80,30.11,10.0,East,8.1,-,N/A,,Overcast,90,2013-12-16 07:52:00
2:15 AM,12.2,6.8,79,30.06,10.0,East,8.1,-,N/A,,Overcast,80,2013-12-16 08:15:00
2:52 AM,12.0,7.0,80,30.12,10.0,East,9.2,-,N/A,,Overcast,80,2013-12-16 08:52:00
3:52 AM,12.0,7.0,80,30.12,10.0,East,8.1,-,N/A,,Overcast,90,2013-12-16 09:52:00
4:52 AM,12.0,7.0,80,30.11,10.0,ESE,5.8,-,N/A,,Overcast,110,2013-12-16 10:52:00
5:52 AM,12.0,7.0,80,30.12,10.0,East,6.9,-,N/A,,Overcast,100,2013-12-16 11:52:00
6:52 AM,12.0,7.0,80,30.11,10.0,ESE,8.1,-,N/A,,Overcast,120,2013-12-16 12:52:00
7:52 AM,12.0,7.0,80,30.10,10.0,SE,8.1,-,N/A,,Overcast,130,2013-12-16 13:52:00
8:52 AM,12.9,8.1,81,30.12,10.0,SE,5.8,-,N/A,,Overcast,130,2013-12-16 14:52:00
9:52 AM,14.0,9.0,80,30.10,10.0,SE,6.9,-,N/A,,Overcast,140,2013-12-16 15:52:00
10:30 AM,15.8,8.6,73,30.06,10.0,SSE,6.9,-,N/A,,Overcast,150,2013-12-16 16:30:00
10:52 AM,15.1,10.0,80,30.10,9.0,SE,6.9,-,N/A,,Overcast,140,2013-12-16 16:52:00
11:52 AM,17.1,10.9,77,30.06,10.0,SE,8.1,-,N/A,,Overcast,140,2013-12-16 17:52:00
12:52 PM,17.1,10.9,77,30.04,10.0,South,8.1,-,N/A,,Overcast,170,2013-12-16 18:52:00
1:52 PM,18.0,12.0,78,30.02,6.0,SSE,6.9,-,N/A,,Haze,160,2013-12-16 19:52:00
2:52 PM,18.0,12.9,81,30.04,5.0,SSW,3.5,-,N/A,,Haze,210,2013-12-16 20:52:00
3:47 PM,17.6,14.0,86,30.01,5.0,West,4.6,-,N/A,,Overcast,260,2013-12-16 21:47:00
3:52 PM,18.0,14.0,84,30.07,5.0,WSW,4.6,-,N/A,,Overcast,250,2013-12-16 21:52:00
4:52 PM,19.0,15.1,85,30.06,5.0,West,3.5,-,N/A,,Overcast,260,2013-12-16 22:52:00
5:52 PM,19.0,15.1,85,30.08,6.0,West,5.8,-,N/A,,Overcast,270,2013-12-16 23:52:00
6:52 PM,21.0,17.1,85,30.07,5.0,NW,9.2,-,N/A,,Overcast,310,2013-12-17 00:52:00
7:52 PM,21.9,19.0,89,30.10,4.0,NW,12.7,-,N/A,,Overcast,310,2013-12-17 01:52:00
8:52 PM,21.9,19.0,89,30.09,4.0,WNW,9.2,-,N/A,,Overcast,290,2013-12-17 02:52:00
9:52 PM,21.0,18.0,88,30.09,5.0,WNW,12.7,-,N/A,,Overcast,300,2013-12-17 03:52:00
10:52 PM,19.9,17.1,89,30.11,6.0,NW,9.2,-,N/A,,Overcast,320,2013-12-17 04:52:00
11:07 PM,19.4,15.8,86,30.08,6.0,WNW,8.1,-,N/A,,Scattered Clouds,290,2013-12-17 05:07:00